Location: Aigremont
(47.7188°N, 3.8925°E)
Time: 15:26:32
(UTC+00:00)

Lacrosse 5 - Pass Details

Date: 18 February 2020
Orbit: 715 x 724 km, 57.0° (Epoch: 21 March)

Event Time Altitude Azimuth Distance (km) Brightness Sun altitude
Exits shadow 05:26:52 20° 286° (WNW) 1,616 3.1 -14.0°
Maximum altitude 05:29:50 40° 229° (SW) 1,059 2.4 -13.5°
Drops below altitude 10° 05:34:33 10° 161° (SSE) 2,203 4.7 -12.7°
Sets 05:37:02 0° 153° (SSE) 3,121 5.6 -12.3°
